STARLINK-36521, 67507

Orbit data source: Space-Track

STARLINK-36521, 67507 is a payload satellite owned by SpaceX/Seattle (US) in LEO that was launched on Sun, 18 Jan 2026 UTC via an FALCON 9 launch vehicle from the Air Force Eastern Test Range (AFETR). Payload-class satellites include a variety of spacecraft equipped with specific instruments for various scientific and technological missions. These include communications satellites like Starlink; space stations such as the ISS; scientific satellites like the Hubble; Earth observation satellites from companies like Planet Labs, Umbra, and HawkEye 360; GPS; miniature CubeSats for education and research; and military/defense satellites.

Loading next visibility...
Identifier
67507, 2026-012Q
Orbit
LEO
Country
Flag of USUS
Related business
Manufacturer
SpaceX/Seattle
Mission
Operational Commercial Communications
Bus & Motor
STARLINK V2MO, Unknown motor
Mass
575 kg wet, ~530 kg dry
Launch date (UTC)
2026-01-18 (5 months ago)
Launch vehicle
FALCON 9
Launch site
Air Force Eastern Test Range (AFETR)
Object type
Payload
Rocket body
Debris
Shape & HBR
Box + 2 Pan, 17.7 m
Radar Cross Section
36.964 m², Large (>1 m²)

Expand to show TLE details & history
Last TLE update: 20 hours ago

TLE from 20 hours ago
0 STARLINK-36521
1 67507U 26012Q   26171.00141684  .00040693  00000-0  14810-2 0  9995
2 67507  43.0009  96.1977 0001821 283.4512  76.6137 15.27560479 23415
Epoch: 2026-06-20T00:02Z
TLE epoch observation values (Epoch: 2026-06-20T00:02:02.414Z)
Latitude
-0.00002°
Longitude
-172.53468°
Altitude
482.594 km
Speed
7.626 km/s
True Right ascension
06h 24m 47s
True Declination
0° 00' 00"
Sunlit
Object was in daylight at epoch
Visualization orbit readout
Latitude
Unknown
Longitude
Unknown
Altitude
Unknown
Speed
Unknown
Apparent Right ascension
Unknown
Apparent Declination
Unknown
Sunlit
N/A
Visualization observer readout
Local Sidereal Time
07:22:54
Azimuth
Unknown
Elevation
Unknown
Doppler factor
Unknown
Orbital elements
Apogee altitude
486.302 km
Perigee altitude
483.803 km
Semi-major axis
6,863.19 km
Eccentricity
0.00018
Inclination
43.0009°
RAAN
96.1977°
Arg. of periapsis
283.4512°
True anomaly
76.634°
Mean anomaly
76.6137°
Eccentric anomaly
76.62385°
Mean motion
3.81728 °/min
Orbital period
94.31 mins
BSTAR
0.001481
Loading maneuver chart data...
Computing Atmospheric mass density...
Loading historical data...
Loading historical data...
Loading historical data...
Loading historical data...
Loading historical data...
Loading historical data...
Loading historical data...

Documentation

Showing up to 5 results
|